Regional Weather Roundup
Issued by NWS Albany, NY

Home | Current Version | Previous Version | Text Only | Print | Product List | Glossary On
Versions: 1 2 3 4 5 6 7 8 9 10 11 12 13 14 15 16 17 18 19 20 21 22 23 24 25 26 27 28 29 30 31 32 33 34 35 36 37 38 39 40 41 42 43 44 45 46 47 48 49
000
ASUS41 KALY 282210
RWRALY

NEW YORK STATE HOURLY WEATHER ROUNDUP
NATIONAL WEATHER SERVICE ALBANY NY
600 PM EDT FRI AUG 28 2015

NOTE: "FAIR" INDICATES FEW OR NO CLOUDS BELOW 12,000 FEET WITH NO
SIGNIFICANT WEATHER AND/OR NO OBSTRUCTIONS TO VISIBILITY.

NYZ032-033-038>043-046>054-057>066-NYZ062>081-282300-
EAST


CITY           SKY/WX    TMP DP  RH WIND       PRES   REMARKS
ALBANY         PTSUNNY   74  55  51 W6        30.14S
GLENS FALLS    SUNNY     75  55  49 S8        30.12S
POUGHKEEPSIE   SUNNY     78  52  40 W3        30.13S
NEWBURGH       MOSUNNY   75  55  50 NW5       30.16S
MONTGOMERY     PTSUNNY   75  56  51 W6        30.14S
WHITE PLAINS   MOSUNNY   77  51  40 NW5       30.14S
ISLIP          MOSUNNY   77  56  48 SW8       30.12R
NEW YORK CITY  MOSUNNY   80  51  36 CALM      30.12S
CENTRAL PARK   MOSUNNY   80  50  34 VRB6      30.15F
$$

NYZ005>009-017-018-044>046-055-056-282300-
CENTRAL


CITY           SKY/WX    TMP DP  RH WIND       PRES   REMARKS
FULTON         SUNNY     71  55  56 NW5       30.17S
SYRACUSE       MOSUNNY   73  56  54 NW5       30.16S
ROME           CLOUDY    71  57  61 W3        30.18S
ELMIRA         PTSUNNY   74  53  48 CALM      30.16S
BINGHAMTON     CLOUDY    68  51  54 CALM      30.19F
MONTICELLO     MOSUNNY   70  52  52 W10       30.20R
$$

NYZ026>034-041>043-282300-
NORTH


CITY           SKY/WX    TMP DP  RH WIND       PRES   REMARKS
WATERTOWN      SUNNY     68  55  63 SW7       30.17S
FORT DRUM      NOT AVBL
MASSENA        SUNNY     71  56  58 SW6       30.13S
SARANAC LAKE   SUNNY     69  51  52 W7        30.15S
PLATTSBURGH    SUNNY     72  57  59 E5        30.11S
$$

NYZ001>004-010>016-019>021-282300-
WEST


CITY           SKY/WX    TMP DP  RH WIND       PRES   REMARKS
NIAGARA FALLS  MOSUNNY   72  54  53 SW10      30.15F
BUFFALO        MOSUNNY   72  53  51 W10       30.16S
DUNKIRK        SUNNY     69  57  65 NW6       30.18S
JAMESTOWN      PTSUNNY   68  55  64 NW9       30.19S
WELLSVILLE     MOSUNNY   71  51  49 CALM      30.21S
ROCHESTER      MOSUNNY   72  57  59 NE8       30.16F
PENN YAN       PTSUNNY   71  55  56 CALM      30.18S
$$

             KEY
       WCI = WIND CHILL INDEX
       VSB = VISIBILITY
       HX  = HEAT INDEX
$$



USA.gov is the U.S. government's official web portal to all federal, state and local government web resources and services.